Hlavní strana
METAR-TAF:

METAR-TAF

Letiště :

Williamson County Regional Airport

Marion, Illinois, Spojené státy americké

zeměpisná šířka: 37-45-01N, zeměpisná délka: 089-00-04W, výška: 144 m

Aktuální stav počasí

Zpráva byla vytvořena před 13 minutami, v 07:55 UTC
Bezvětří
Teplota 2°C
Vlhkost vzduchu 93%
Tlak 1022 hPa
Viditelnost: 11.3 km
Jasno

METAR: KMWA 080755Z AUTO 00000KT 7SM CLR 02/01 A3017 RMK AO2 T00150009

Čas: 02:08 (08:08 UTC)


TAF: chybějící

Stav a předpovědi počasí z více než 4 000 letišť (zprávy METAR a TAF).

Červené a žluté tečky na mapě představují dostupné meteorologické stanice.

Když kurzor umístíte na tečku, zobrazí se název stanice.

Pak kliknutím zobrazíte stav a předpověď počasí.

Chcete-li změnit mapu, kliknutím na zelené tlačítko se znaménkem +mapu přiblížíte, kliknutím na zelené tlačítko se znaménkem – mapu oddálíte a kliknutím na zelené šipky přejdete na sousední mapy.


METAR-TAF: